TimeCDT,TemperatureF,Dew PointF,Humidity,Sea Level PressureIn,VisibilityMPH,Wind Direction,Wind SpeedMPH,Gust SpeedMPH,PrecipitationIn,Events,Conditions,WindDirDegrees,DateUTC
12:15 AM,44.6,37.4,76,29.95,10.0,North,4.6,-,N/A,,Clear,350,2012-10-02 05:15:00
12:35 AM,41.0,35.6,81,29.95,10.0,North,3.5,-,N/A,,Clear,360,2012-10-02 05:35:00
12:55 AM,42.8,35.6,76,29.95,10.0,NNE,3.5,-,N/A,,Clear,20,2012-10-02 05:55:00
1:15 AM,42.8,37.4,81,29.96,10.0,North,3.5,-,N/A,,Clear,360,2012-10-02 06:15:00
1:35 AM,41.0,35.6,81,29.96,10.0,North,4.6,-,N/A,,Clear,360,2012-10-02 06:35:00
1:55 AM,41.0,35.6,81,29.96,10.0,North,4.6,-,N/A,,Clear,360,2012-10-02 06:55:00
2:15 AM,42.8,35.6,76,29.96,10.0,North,5.8,-,N/A,,Clear,360,2012-10-02 07:15:00
2:35 AM,41.0,35.6,81,29.96,10.0,Calm,Calm,-,N/A,,Clear,0,2012-10-02 07:35:00
2:55 AM,41.0,35.6,81,29.95,10.0,Calm,Calm,-,N/A,,Clear,0,2012-10-02 07:55:00
3:15 AM,39.2,33.8,81,29.95,10.0,Calm,Calm,-,N/A,,Clear,0,2012-10-02 08:15:00
3:35 AM,37.4,33.8,87,29.95,10.0,Calm,Calm,-,N/A,,Clear,0,2012-10-02 08:35:00
3:55 AM,39.2,35.6,87,29.95,10.0,Calm,Calm,-,N/A,,Clear,0,2012-10-02 08:55:00
4:15 AM,37.4,33.8,87,29.95,10.0,Calm,Calm,-,N/A,,Clear,0,2012-10-02 09:15:00
4:35 AM,35.6,33.8,93,29.95,10.0,Calm,Calm,-,N/A,,Clear,0,2012-10-02 09:35:00
4:55 AM,35.6,33.8,93,29.95,10.0,Calm,Calm,-,N/A,,Clear,0,2012-10-02 09:55:00
5:15 AM,35.6,35.6,100,29.96,10.0,Calm,Calm,-,N/A,,Clear,0,2012-10-02 10:15:00
5:35 AM,35.6,35.6,100,29.96,10.0,Calm,Calm,-,N/A,,Clear,0,2012-10-02 10:35:00
5:55 AM,35.6,35.6,100,29.97,10.0,Calm,Calm,-,N/A,,Clear,0,2012-10-02 10:55:00
6:15 AM,35.6,35.6,100,29.97,10.0,Calm,Calm,-,N/A,,Clear,0,2012-10-02 11:15:00
6:35 AM,35.6,35.6,100,29.97,10.0,Calm,Calm,-,N/A,,Clear,0,2012-10-02 11:35:00
6:55 AM,33.8,33.8,100,29.97,5.0,Calm,Calm,-,N/A,,Clear,0,2012-10-02 11:55:00
7:15 AM,33.8,33.8,100,29.97,7.0,Calm,Calm,-,N/A,,Clear,0,2012-10-02 12:15:00
7:35 AM,33.8,33.8,100,29.97,10.0,Calm,Calm,-,N/A,,Clear,0,2012-10-02 12:35:00
7:55 AM,33.8,33.8,100,29.98,7.0,Calm,Calm,-,N/A,,Clear,0,2012-10-02 12:55:00
8:15 AM,37.4,37.4,100,29.98,10.0,Calm,Calm,-,N/A,,Clear,0,2012-10-02 13:15:00
8:35 AM,42.8,41.0,93,29.98,10.0,Calm,Calm,-,N/A,,Clear,0,2012-10-02 13:35:00
8:55 AM,46.4,41.0,81,29.98,10.0,Calm,Calm,-,N/A,,Clear,0,2012-10-02 13:55:00
9:15 AM,50.0,42.8,76,29.97,10.0,Calm,Calm,-,N/A,,Clear,0,2012-10-02 14:15:00
9:35 AM,53.6,42.8,67,29.97,10.0,ESE,3.5,-,N/A,,Clear,120,2012-10-02 14:35:00
9:55 AM,-9999,-9999,N/A,-9999,-9999.0,North,-9999.0,-,N/A,,Unknown,0,2012-10-02 14:55:00
10:15 AM,59.0,44.6,59,29.97,10.0,SE,3.5,-,0.03,,Clear,140,2012-10-02 15:15:00
10:35 AM,59.0,44.6,59,29.97,10.0,South,3.5,-,0.03,,Clear,180,2012-10-02 15:35:00
10:55 AM,62.6,42.8,48,29.96,10.0,SSE,6.9,-,0.03,,Clear,150,2012-10-02 15:55:00
11:15 AM,62.6,42.8,48,29.96,10.0,SSE,6.9,-,N/A,,Clear,160,2012-10-02 16:15:00
11:35 AM,62.6,41.0,45,29.95,10.0,South,5.8,-,N/A,,Clear,190,2012-10-02 16:35:00
11:55 AM,64.4,39.2,40,29.95,10.0,SSE,3.5,-,N/A,,Clear,150,2012-10-02 16:55:00
12:15 PM,64.4,37.4,37,29.94,10.0,South,6.9,-,N/A,,Clear,170,2012-10-02 17:15:00
12:35 PM,64.4,37.4,37,29.94,10.0,SSW,9.2,-,N/A,,Clear,210,2012-10-02 17:35:00
12:55 PM,66.2,37.4,35,29.94,10.0,Calm,Calm,-,N/A,,Clear,0,2012-10-02 17:55:00
1:15 PM,66.2,35.6,32,29.93,10.0,South,5.8,-,N/A,,Clear,180,2012-10-02 18:15:00
1:35 PM,68.0,35.6,30,29.91,10.0,SSE,4.6,-,N/A,,Clear,150,2012-10-02 18:35:00
1:55 PM,68.0,33.8,28,29.90,10.0,Calm,Calm,-,N/A,,Clear,0,2012-10-02 18:55:00
2:15 PM,68.0,35.6,30,29.90,10.0,South,5.8,-,N/A,,Clear,190,2012-10-02 19:15:00
2:35 PM,68.0,35.6,30,29.89,10.0,ESE,4.6,-,N/A,,Clear,120,2012-10-02 19:35:00
2:55 PM,68.0,35.6,30,29.88,10.0,South,3.5,-,N/A,,Clear,170,2012-10-02 19:55:00
3:15 PM,69.8,33.8,27,29.88,10.0,WSW,3.5,-,N/A,,Clear,250,2012-10-02 20:15:00
3:35 PM,69.8,33.8,27,29.87,10.0,SSW,5.8,-,N/A,,Clear,200,2012-10-02 20:35:00
3:55 PM,69.8,33.8,27,29.87,10.0,SSE,8.1,-,N/A,,Clear,150,2012-10-02 20:55:00
4:15 PM,69.8,33.8,27,29.87,10.0,South,8.1,-,N/A,,Clear,170,2012-10-02 21:15:00
4:35 PM,69.8,33.8,27,29.86,10.0,South,8.1,-,N/A,,Clear,190,2012-10-02 21:35:00
4:55 PM,69.8,33.8,27,29.86,10.0,South,8.1,-,N/A,,Clear,190,2012-10-02 21:55:00
5:15 PM,69.8,32.0,25,29.86,10.0,SSW,6.9,-,N/A,,Clear,210,2012-10-02 22:15:00
5:35 PM,68.0,32.0,26,29.87,10.0,SSW,8.1,-,N/A,,Clear,200,2012-10-02 22:35:00
5:55 PM,68.0,33.8,28,29.87,10.0,South,8.1,-,N/A,,Clear,190,2012-10-02 22:55:00
6:15 PM,66.2,33.8,30,29.87,10.0,South,8.1,-,N/A,,Clear,180,2012-10-02 23:15:00
6:35 PM,64.4,33.8,32,29.87,10.0,South,4.6,-,N/A,,Clear,190,2012-10-02 23:35:00
7:15 PM,60.8,35.6,39,29.87,10.0,SE,4.6,-,N/A,,Clear,140,2012-10-03 00:15:00
7:35 PM,59.0,33.8,39,29.87,10.0,SSE,4.6,-,N/A,,Clear,150,2012-10-03 00:35:00
7:55 PM,55.4,33.8,44,29.87,10.0,SE,4.6,-,N/A,,Clear,140,2012-10-03 00:55:00
8:15 PM,55.4,33.8,44,29.88,10.0,SSE,4.6,-,N/A,,Clear,150,2012-10-03 01:15:00
8:35 PM,55.4,33.8,44,29.88,10.0,SE,4.6,-,N/A,,Clear,140,2012-10-03 01:35:00
9:15 PM,53.6,33.8,47,29.88,10.0,SSE,3.5,-,N/A,,Clear,150,2012-10-03 02:15:00
9:35 PM,51.8,33.8,50,29.89,10.0,Calm,Calm,-,N/A,,Clear,0,2012-10-03 02:35:00
9:55 PM,51.8,33.8,50,29.89,10.0,SSE,3.5,-,N/A,,Clear,150,2012-10-03 02:55:00
10:15 PM,50.0,33.8,54,29.89,10.0,SSE,3.5,-,N/A,,Clear,150,2012-10-03 03:15:00
10:35 PM,51.8,35.6,54,29.88,10.0,SE,4.6,-,N/A,,Clear,140,2012-10-03 03:35:00
10:55 PM,51.8,35.6,54,29.88,10.0,SSE,3.5,-,N/A,,Clear,150,2012-10-03 03:55:00
11:15 PM,51.8,35.6,54,29.89,10.0,SSE,4.6,-,N/A,,Clear,150,2012-10-03 04:15:00
11:35 PM,48.2,35.6,62,29.89,10.0,Calm,Calm,-,N/A,,Clear,0,2012-10-03 04:35:00
11:55 PM,48.2,35.6,62,29.89,10.0,Calm,Calm,-,N/A,,Clear,0,2012-10-03 04:55:00